Location: Caltech
(34.1382°N, 118.1253°W)
Time: 20:08:22
(UTC-07:00)

Cosmos 2084 - Visible Passes

Search period start: 27 May 2018 00:00
Search period end: 06 June 2018 00:00
Orbit: 505 x 679 km, 62.8° (Epoch: 27 May)

Date Brightness Start Highest point End Pass type
(mag) Time Alt. Az. Time Alt. Az. Time Alt. Az.
27 May 6.8 04:23:23 10° NNE 04:24:58 12° NE 04:26:35 10° ENE visible
27 May 7.0 21:43:49 10° WNW 21:45:33 12° NW 21:47:16 10° NNW visible
28 May 6.1 04:30:48 10° N 04:33:47 21° NE 04:36:48 10° ESE visible
29 May 4.7 04:38:53 10° NNW 04:42:30 39° NE 04:46:09 10° SE visible
30 May 3.2 04:47:17 10° NNW 04:51:07 82° ENE 04:55:00 10° SSE visible
30 May 6.5 20:28:33 10° W 20:31:41 19° NW 20:34:44 10° N visible
31 May 6.5 03:18:05 10° NNE 03:19:57 13° NE 03:21:49 10° ENE visible
31 May 3.4 04:55:58 10° NW 04:59:38 46° WSW 05:03:22 10° SSE visible
31 May 7.1 20:39:08 10° WNW 20:40:31 11° NW 20:41:54 10° NNW visible
01 Jun 5.7 03:25:38 10° N 03:28:45 23° NE 03:31:52 10° ESE visible
01 Jun 4.3 05:05:03 10° WNW 05:08:07 23° WSW 05:11:12 10° SSW visible
02 Jun 4.3 03:33:46 10° NNW 03:37:26 43° NE 03:41:08 10° SE visible
03 Jun 3.0 03:42:12 10° NNW 03:46:02 90° NNE 03:49:08 15° SSE visible
04 Jun 6.2 02:12:49 10° NNE 02:14:54 14° NE 02:17:01 10° E visible
04 Jun 3.8 03:50:56 10° NW 03:53:45 36° W 03:53:45 36° W visible
05 Jun 5.3 02:20:30 10° N 02:23:40 25° NE 02:23:40 25° NE visible
05 Jun 5.6 04:00:05 10° WNW 04:00:06 10° WNW 04:00:06 10° WNW visible
